Tracking 28799 objects as of 18-Apr-2024
HD Live streaming from Space Station
objects crossing your sky now

IRIDIUM 33 DEB

Track IRIDIUM 33 DEB now!
10-day predictions


NORAD ID: 34825
Int'l Code: 1997-051LZ
Perigee: 578.0 km
Apogee: 593.9 km
Inclination: 86.4 °
Period: 96.2 minutes
Semi major axis: 6956 km
RCS: 0.016 m2 (small)
Launch date: September 14, 1997
Source: United States (US)
Launch site: TYURATAM MISSILE AND SPACE COMPLEX (TTMTR)

Note: This is SATELLITE DEBRIS
Your satellite tracking list
Your tracking list is empty




NASA's NSSDC Master Catalog

Two Line Element Set (TLE):
1 34825U 97051LZ  24108.93408590  .00153985  00000-0  13381-1 0  9995
2 34825  86.3518 258.6032 0011414 286.2728 203.4174 14.96160641797368
Source of the keplerian elements: AFSPC